Location: Novokuznetsk
(53.7500°N, 87.1000°E)
Time: 13:40:27
(UTC+06:00)

ISS - Pass Details

Date: 16 July 2018
Orbit: 402 x 408 km, 51.6° (Epoch: 23 July)

Event Time Altitude Azimuth Distance (km) Brightness Sun altitude
Exits shadow 23:30:32 17° 115° (ESE) 1,125 -1.9 -14.3°
Drops below altitude 10° 23:31:45 10° 98° (E) 1,470 -1.2 -14.3°
Sets 23:34:07 0° 82° (E) 2,335 0.0 -14.4°
